Flag for Tuvalu Weather past 2 weeks in Funafuti, Tuvalu

Now
79 °F

Scattered showers. More clouds than sun.


Feels Like: 83 °F
Forecast: 80 / 82 °F
Wind: 2 mph from North

Location: Funafuti

Current Time: Aug 3, 2015 at 7:07:24 PM

Latest Report: Aug 3, 2015 at 6:00 PM


Visibility: N/A

Pressure: 29.71 "Hg

Humidity: 94%

Dew point: 77 °F

Location of FunafutiLocation

Historic Weather in Funafuti — Graph

°F

Funafuti temperature yesterday

Maximum temperature yesterday: 86 °F (at 9:00 AM)
Minimum temperature yesterday: 77 °F (at 6:00 PM)
Average temperature yesterday: 82 °F

Past Weeks' High & Low Weather Summary

 TemperatureHumidityPressure
High90 °F (Aug 1, 1:00 PM)100% (Aug 2, 6:00 PM)29.92 "Hg (Aug 2, 6:00 PM)
Low77 °F (Jul 21, 1:00 AM)66% (Jul 20, 1:00 PM)29.65 "Hg (Jul 25, 6:00 AM)
Average82 °F85%29.81 "Hg
* Reported Jul 20 1:00 AM — Aug 3 6:00 PM, Funafuti, Weather by CustomWeather, © 2015

Note: Actual official high and low records may vary slightly from our data, if they occured in-between our weather recording intervals... More about our weather records

Advertising

Funafuti weather history for previous 24 hours

 ConditionsComfort  
Time TempWeatherWind HumidityBarometerVisibility
6:00 PM
Mon, Aug 3
79 °FScattered showers. More clouds than sun.2 mph94%29.71 "HgN/A
5:00 PM79 °FRain. More clouds than sun.7 mph89%29.71 "HgN/A
4:00 PM77 °FSprinkles. More clouds than sun.6 mph83%29.71 "HgN/A
3:00 PM79 °FSprinkles. More clouds than sun.8 mph79%29.74 "HgN/A
2:00 PM86 °FScattered showers. Broken clouds.No wind84%29.71 "HgN/A
1:00 PM86 °FBroken clouds.3 mph79%29.71 "HgN/A
12:00 PM88 °FBroken clouds.3 mph75%29.77 "HgN/A
11:00 AM86 °FBroken clouds.2 mph79%29.77 "HgN/A
10:00 AM84 °FBroken clouds.2 mph84%29.77 "HgN/A
9:00 AM84 °FBroken clouds.1 mph84%29.77 "HgN/A
8:00 AM81 °FScattered showers. Scattered clouds.No wind89%29.77 "HgN/A
7:00 AM81 °FScattered showers. Scattered clouds.No wind89%29.74 "HgN/A
6:00 AM81 °FScattered showers. Passing clouds.3 mph84%29.77 "HgN/A
5:00 AM79 °FScattered showers. Overcast.9 mph94%29.74 "HgN/A
4:00 AM79 °FScattered showers. Overcast.9 mph89%29.71 "HgN/A
3:00 AM79 °FScattered showers. Mostly cloudy.10 mph89%29.74 "HgN/A
2:00 AM79 °FMostly cloudy.10 mph89%29.74 "HgN/A
1:00 AM81 °FMostly cloudy.12 mph89%29.77 "HgN/A
12:00 AM81 °FPassing clouds.No wind84%29.77 "HgN/A
11:00 PM
Sun, Aug 2
81 °FOvercast.No wind89%29.80 "HgN/A
10:00 PM79 °FMostly cloudy.No wind94%29.80 "HgN/A
9:00 PM79 °FMostly cloudy.No wind94%29.80 "HgN/A
8:00 PM79 °FScattered showers. Partly cloudy.No wind89%29.71 "HgN/A
7:00 PM79 °FScattered showers. Partly cloudy.No wind89%29.77 "HgN/A
Weather by CustomWeather, © 2015

See weather overviewHow to use our weather pages